STARLINK-3071 (49147 NORAD) Tracking and Keplerian Element Data

This shows tracking and keplerian element data for the satellite.

Feedback or suggestion? Click here.




ElementValue
Catalog49147
NameSTARLINK-3071
Epoch Orbit370
Epoch Day287.91667824
Epoch Year2021
RAAN40.321
Inclination70.0018
Eccentricity0.0003481
Argument of Perigee289.1065
Mean Anonmoly156.4358
Mean Motion15.69769179
Decay Rate-0.00035723
L11 49147U 21082T 21287.91667824 -.00035723 00000-0 -29849-3 0 9998
L22 49147 70.0018 40.3210 0003481 289.1065 156.4358 15.69769179 3702

Live tracking and technical data element details for STARLINK-3071 (NORAD 49147). STARLINK-3071 can be tracked NOW for your location showing map with azimuth and elevation plus other details from your city location.

Track the satellite on the map from your city or location and see movement details for azimuth, elevation, latitude, longitude, range, height, and movement on the map or in text.







IsCatalogInMostPopularTable: catalog: 49147, numindb: 4
Update: records affected: 1



GetName: 49147 STARLINK-3071

Hit Count: updated at: Sun, 17 Oct 2021 09:50:48 GMT